Flag for U.S.A. Weather past 2 weeks in Unalaska, Alaska, U.S.A.

Now
50 °F

Low clouds.


Feels Like: 45 °F
Forecast: 51 / 58 °F
Wind: 15 mph from North

Location: Dutch Harbor

Current Time: Aug 3, 2015 at 3:47:25 AM

Latest Report: Aug 3, 2015 at 2:56 AM


Visibility: 8 mi

Pressure: 30.09 "Hg

Humidity: 93%

Dew point: 48 °F

Location of UnalaskaLocation

Historic Weather in Unalaska — Graph

°F

Unalaska temperature yesterday

Maximum temperature yesterday: 51 °F (at 11:56 PM)
Minimum temperature yesterday: 48 °F (at 5:59 AM)
Average temperature yesterday: 49 °F

Past Weeks' High & Low Weather Summary

 TemperatureHumidityPressure
High65 °F (Jul 20, 3:56 PM)94% (Jul 30, 9:59 AM)30.37 "Hg (Jul 30, 9:59 AM)
Low47 °F (Jul 30, 7:56 AM)64% (Jul 22, 2:56 PM)29.75 "Hg (Jul 20, 1:56 PM)
Average52 °F82%30.10 "Hg
* Reported Jul 19 2:56 AM — Aug 3 2:56 AM, Unalaska, Weather by CustomWeather, © 2015

Note: Actual official high and low records may vary slightly from our data, if they occured in-between our weather recording intervals... More about our weather records

Advertising

Unalaska weather history for previous 24 hours

 ConditionsComfort  
Time TempWeatherWind HumidityBarometerVisibility
2:56 AM
Mon, Aug 3
50 °FLow clouds.15 mph93%30.09 "Hg8 mi
1:56 AM51 °FLight rain. Fog.7 mph89%30.10 "Hg3 mi
12:56 AM50 °FLight rain. Fog.10 mph93%30.11 "Hg2 mi
12:04 AM52 °FLight rain. Fog.10 mph88%30.12 "Hg2 mi
11:56 PM
Sun, Aug 2
51 °FLight rain. Fog.15 mph89%30.13 "Hg5 mi
10:56 PM50 °FFog.12 mph89%30.13 "Hg3 mi
9:56 PM49 °FLight rain. Fog.10 mph93%30.15 "Hg2 mi
8:56 PM49 °FLight rain. Fog.13 mph93%30.15 "Hg1 mi
6:56 PM50 °FFog.14 mph89%30.18 "Hg4 mi
5:56 PM50 °FLight rain. Fog.15 mph89%30.19 "Hg2 mi
4:56 PM50 °FLight rain. Fog.13 mph93%30.20 "Hg2 mi
3:56 PM50 °FLight rain. Fog.15 mph89%30.23 "Hg2 mi
2:56 PM49 °FLight rain. Fog.12 mph93%30.24 "Hg2 mi
1:56 PM49 °FLight rain. Fog.6 mph93%30.25 "Hg2 mi
12:56 PM50 °FLight rain. Fog.6 mph89%30.26 "Hg2 mi
11:56 AM49 °FLight rain. Fog.14 mph93%30.27 "Hg2 mi
10:56 AM49 °FLight rain. Fog.12 mph90%30.27 "Hg2 mi
9:56 AM49 °FLight rain. Fog.7 mph90%30.28 "Hg2 mi
7:56 AM49 °FLight rain. Fog.6 mph90%30.28 "Hg2 mi
7:03 AM48 °FLight rain. Fog.7 mph94%30.27 "Hg2 mi
6:56 AM49 °FLight rain. Fog.7 mph90%30.29 "Hg5 mi
5:59 AM48 °FLight rain. Fog.8 mph94%30.28 "Hg5 mi
4:56 AM49 °FLight rain. Fog.12 mph93%30.30 "Hg2 mi
3:56 AM49 °FLight rain. Fog.7 mph90%30.30 "Hg3 mi
Weather by CustomWeather, © 2015

See weather overviewHow to use our weather pages